{"data":{"norad_id":51633,"epoch":"2026-09-20T05:00:03.016800Z","epoch_age_seconds":50869,"freshness":"FRESH","line1":"1 51633U 22012M   26263.20836825  .00000038  00000+0  64607-4 0  9995","line2":"2 51633  87.9207 346.9848 0001965  94.0865 266.0491 13.17649783226195","mean_motion":13.17649783,"eccentricity":0.0001965,"inclination_deg":87.9207,"raan_deg":346.9848,"arg_perigee_deg":94.0865,"mean_anomaly_deg":266.0491,"bstar":6.4607e-5,"rev_number":22619,"period_min":109.28548834285,"perigee_km":1192.2223922134,"apogee_km":1195.1981281866,"semimajor_km":7571.8472602,"source":"CELESTRAK","updated_at":"2026-09-20T09:00:44.709922Z"}}